384  
ASUS44 KOUN 230510  
RWROK  
 
WEATHER ROUNDUP FOR OKLAHOMA  
NATIONAL WEATHER SERVICE NORMAN OK  
1100 PM CST WED JAN 22 2020  
 
NOTE: "FAIR" INDICATES FEW OR NO CLOUDS BELOW 12,000 FEET WITH NO  
SIGNIFICANT WEATHER AND/OR S TO VISIBILITY
.  
 
OKZ001>007-009>012-014-015-017-230600-  
NORTHWEST OKLAHOMA AND THE PANHANDLE  
 
CITY SKY/WX TMP DP RH WIND PRES REMARKS
 
GAGE CLEAR 34 33 96 W3 29.89R FOG  
GUYMON CLEAR 38 25 59 NW6 29.94R WCI 33  
ENID/WOODRING CLOUDY 39 37 93 CALM 29.93R FOG  

 
 
OKZ016-021>023-033>039-044-045-230600-  
SOUTHWEST OKLAHOMA  
 
CITY SKY/WX TMP DP RH WIND PRES REMARKS
 
LAWTON/REGL FOG 43 43 100 NE3 29.92R VSB 3/4  
LAWTON/FT SILL FOG 43 43 100 CALM 29.91R VSB 1  
FREDERICK FOG 44 44 100 NE7 29.89R VSB 1/4  
CLINTON FOG 41 41 100 S3 29.91R VSB 1/4  
HOBART FOG 43 43 100 CALM 29.92R VSB 1/4  
ALTUS AFB FOG 43 43 100 CALM 29.92R VSB 3/4  

 
 
OKZ018>020-024>031-230600-  
CENTRAL OKLAHOMA  
 
CITY SKY/WX TMP DP RH WIND PRES REMARKS
 
OKLAHOMA CITY FOG 38 38 100 S8 29.92S VSB 1/2 WCI 32  
OKC/WILEY POST CLOUDY 40 39 97 S6 29.93R FOG  
OKC/TINKER AFB CLOUDY 38 38 100 S8 29.92S FOG WCI 32  
STILLWATER CLOUDY 38 35 89 S8 29.94S FOG WCI 32  
GUTHRIE CLOUDY 38 37 97 S8 29.93S FOG WCI 32  

 
 
OKZ008-013-054>072-230600-  
NORTHEAST OKLAHOMA  
 
CITY SKY/WX TMP DP RH WIND PRES REMARKS
 
TULSA DRIZZLE 37 36 96 S9 29.97S FOG WCI 30  
TULSA/JONES CLOUDY 38 36 92 S7 29.98S FOG WCI 33  
PONCA CITY CLOUDY 49 35 58 S7 29.95R  
BARTLESVILLE CLOUDY 35 35 100 S7 29.98F FOG WCI 29  
MUSKOGEE LGT RAIN 35 34 96 SE7 30.00S FOG WCI 29  

 
 
OKZ032-040>043-046>053-073>077-230600-  
SOUTH CENTRAL/SOUTHEAST OKLAHOMA  
 
CITY SKY/WX TMP DP RH WIND PRES REMARKS
 
ARDMORE/DWNTWN CLOUDY 39 37 93 SE5 29.94S FOG  
MCALESTER RAIN 38 35 89 VRB6 29.97S FOG WCI 33  

 
 
 
 
CLICK HERE TO GO TO PREVIOUS BULLETINS.

The Nexlab OK Page Main Text Page